Skip Page Navigation
NASA JPL Caltech
NASA Logo - Jet Propulsion Laboratory + View the NASA Portal
+ Center for Near-Earth Object Studies
JPL Home Earth Solar System Stars & Galaxies Technology
JPL Solar System Dynamics
BODIES ORBITS EPHEMERIDES TOOLS PHYSICAL DATA DISCOVERY FAQ SITE MAP
JPL Small-Body Database Browser
Search: [ help ]  
3571 Milanstefanik (1982 EJ)
Classification: Outer Main-belt Asteroid          SPK-ID: 2003571
Ephemeris | Orbit Diagram | Orbital Elements | Mission Design | Physical Parameters | Discovery Circumstances | Close-Approach Data ]

[ show orbit diagram ]
Orbital Elements at Epoch 2459000.5 (2020-May-31.0) TDB
Reference: JPL 37 (heliocentric ecliptic J2000)
 Element Value Uncertainty (1-sigma)   Units 
e .1124845121032346 3.9506e-08  
a 3.939553312143037 3.5766e-08 au
q 3.496414579921945 1.6157e-07 au
i 7.855137993004465 4.2917e-06 deg
node 248.9482818501456 3.1346e-05 deg
peri 21.01356030674456 3.8917e-05 deg
M 242.7003875293665 2.6593e-05 deg
tp 2459931.099846063390
(2022-Dec-17.59984606)
0.00021794 TDB
period 2856.070344364466
7.82
3.8894e-05
1.065e-07
d
yr
n .1260473155748226 1.7165e-09 deg/d
Q 4.382692044364129 3.9789e-08 au
  Orbit Determination Parameters
   # obs. used (total)      2308  
   data-arc span      24527 days (67.15 yr)  
   first obs. used      1953-09-06  
   last obs. used      2020-10-31  
   planetary ephem.      DE431  
   SB-pert. ephem.      SB431-N16  
   condition code      0  
   norm. resid. RMS      .42307  
   source      ORB  
   producer      Otto Matic  
   solution date      2020-Nov-13 03:59:12  

Additional Information
 Earth MOID = 2.48197 au 
 Jupiter MOID = .713318 au 
 T_jup = 3.034 
[ show covariance matrix ]

Ephemeris | Orbit Diagram | Orbital Elements | Mission Design | Physical Parameters | Discovery Circumstances | Close-Approach Data ]

Physical Parameter Table
Parameter Symbol Value Units Sigma Reference Notes
absolute magnitude H 11.0   n/a MPO395030  
diameter diameter 34.898 km 0.578 urn:nasa:pds:neowise_diameters_albedos::2.0[hildas] (http://adsabs.harvard.edu/abs/2012ApJ...744..197G)  
rotation period rot_per 421.1 h n/a LCDB (Rev. 2019-August); Warner et al., 2009 Result based on less than full coverage, so that the period may be wrong by 30 percent or so.
Published Reference List:
[Warner, B.D.; Stephens, R.D. (2017) Minor Planet Bull. 44, 36-41.]
geometric albedo albedo 0.063   0.010 urn:nasa:pds:neowise_diameters_albedos::2.0[hildas] (http://adsabs.harvard.edu/abs/2012ApJ...744..197G)  

3571 Milanstefanik (1982 EJ)          Discovered 1982-Mar-15 by Mrkos, A. at Klet
Reference: DISCOVERY.DBLast Updated: 2003-08-29

[ hide close-approach data ]
Close-Approach Data   ...sorted by Date/Time (TDB)
Date/Time (TDB) Time Uncertainty
(days_HH:MM)
Body Nominal Distance (au) Minimum Distance (au) Maximum Distance (au) V-relative (km/s) V-infinity (km/s) JD (TDB) Time Uncertainty (minutes) Semi-major axis (km) Semi-minor axis (km) range-LOV angle (deg) N-sigma BP Orbit Ref. Reference Modified
1913-Nov-25 12:12 00:02 Jupiter 1.69807536234061 1.69807468454153 1.69807604013969 4.08961041256109 3.96576433949443 2420097.008215182 1.83794565956753 64.2655951675569 28.7246762678543 82.8641944978573 2399583.11197783 T 37 CATAB v2.0f-lin.ifort 2020-Nov-13 03:59:18 2020-Nov-13 03:59
1937-May-20 23:52 00:02 Jupiter 1.73813594632656 1.73813530070614 1.73813659194708 4.29314930025325 4.17809737748306 2428674.494701466 2.02062486828409 73.8355875365636 26.1155957936604 80.1098915719596 2809002.50013779 T 37 CATAB v2.0f-lin.ifort 2020-Nov-13 03:59:18 2020-Nov-13 03:59
1960-Aug-10 15:01 00:02 Jupiter 1.78020687027524 1.78020635600515 1.78020738454542 4.53798777175537 4.43189947076149 2437157.125728555 1.7846661767255 82.066847581568 22.2134615371781 84.0418256585485 3785381.66099432 T 37 CATAB v2.0f-lin.ifort 2020-Nov-13 03:59:18 2020-Nov-13 03:59
1983-Sep-04 03:12 00:01 Jupiter 1.82528294180193 1.82528246771777 1.8252834158861 4.64790992229112 4.54697335402981 2445581.633124872 1.17947336568513 69.9494828414807 22.0130043505351 89.6294572914621 4043773.39685327 T 37 CATAB v2.0f-lin.ifort 2020-Nov-13 03:59:18 2020-Nov-13 03:59
2006-Sep-09 17:08 < 00:01 Jupiter 1.83507089381266 1.83507034359925 1.83507144402597 4.45311227719083 4.34822484642978 2453988.213876794 0.441803964599853 47.8657164343281 25.1770315658499 85.3095726762699 3591652.16804831 T 37 CATAB v2.0f-lin.ifort 2020-Nov-13 03:59:18 2020-Nov-13 03:59
2029-Oct-06 13:50 < 00:01 Jupiter 1.81221114288794 1.8122105679466 1.81221171782938 4.04602635321463 3.92880831023128 2462416.076672882 0.905832632072658 60.267839724144 22.2274771574213 74.5977034972799 3674307.58531547 T 37 CATAB v2.0f-lin.ifort 2020-Nov-13 03:59:18 2020-Nov-13 03:59
2053-Jan-07 05:15 00:02 Jupiter 1.77189384268414 1.77189329314012 1.77189439222815 3.63880248119241 3.50497059429069 2470909.719012190 1.93309402587932 94.6625185942182 23.2021531555281 83.9823686218211 3175709.88805758 T 37 CATAB v2.0f-lin.ifort 2020-Nov-13 03:59:18 2020-Nov-13 03:59
2076-Jul-26 05:28 00:03 Jupiter 1.74318439663951 1.74318382145187 1.74318497182715 3.45699865788729 3.31346180680899 2479510.727883517 2.59733271888524 120.738379980783 24.1148669877638 87.6979121243806 2969479.78547323 T 37 CATAB v2.0f-lin.ifort 2020-Nov-13 03:59:18 2020-Nov-13 03:59
2100-Jun-07 01:52 00:03 Jupiter 1.72414037757037 1.72413980512266 1.72414095001807 3.51263630028633 3.36987671198408 2488226.577896749 2.60645121733239 129.047071774884 24.1551233334752 88.5267412817907 3039632.87181408 T 37 CATAB v2.0f-lin.ifort 2020-Nov-13 03:59:18 2020-Nov-13 03:59
2124-Jun-27 00:10 00:02 Jupiter 1.70831595867542 1.70831540329405 1.70831651405679 3.67335670792072 3.53580306323586 2497012.506886607 2.20221926029088 121.494422169896 23.9877437808796 89.0071343397185 3148437.30293486 T 37 CATAB v2.0f-lin.ifort 2020-Nov-13 03:59:18 2020-Nov-13 03:59
2148-Aug-01 05:29 00:02 Jupiter 1.67544390570956 1.67544332291805 1.67544448850097 3.77773012135133 3.64144787993148 2505813.728128948 1.91111835119608 113.5347377588 25.5858135134736 89.309974979322 3055119.06513979 T 37 CATAB v2.0f-lin.ifort 2020-Nov-13 03:59:18 2020-Nov-13 03:59
2172-Jul-19 19:39 00:02 Jupiter 1.65279826784871 1.6527975591536 1.65279897654381 3.80734483913502 3.6702750589479 2514567.318759582 2.06234926667144 121.790299740078 31.1328740316809 86.0817974484086 2710542.23406286 T 37 CATAB v2.0f-lin.ifort 2020-Nov-13 03:59:18 2020-Nov-13 03:59
2196-Apr-06 15:51 00:02 Jupiter 1.67135158753434 1.67135076643964 1.67135240862952 3.83664486494137 3.70219744477004 2523229.160383003 2.36434490263678 137.701942231528 34.2102577344218 82.722806978983 2575419.80991882 T 37 CATAB v2.0f-lin.ifort 2020-Nov-13 03:59:18 2020-Nov-13 03:59

Alternate Designations
 1982 EJ = 1976 NL = 1985 TJ3 
Ephemeris | Orbit Diagram | Orbital Elements | Mission Design | Physical Parameters | Discovery Circumstances | Close-Approach Data ]
ABOUT SSD CREDITS/AWARDS PRIVACY/COPYRIGHT GLOSSARY LINKS
FirstGov 2020-Nov-23 23:05 UT
(server date/time)  
NASA Home Page
Site Manager:   Ryan S. Park
Webmaster  Alan B. Chamberlin